GFSSW_500_temp_021.txt.gz
Temp
-9 -9 -9 -9 -9 -9 -9 -9 -9 -9 -9 -9 -9 -9 -9 -9 -9 -9 -9 -9 -9 -9 -9 -9 -9 -9 -9 -9 -9 -9 -10 -10 -10 -10 -10 -10 -10 -10 -11 -11 -11 -10 -11 -10 -10
-10 -10 -10 -10 -10 -10 -10 -9 -9 -9 -9 -9 -9 -9 -9 -9 -9 -9 -9 -9 -9 -9 -9 -9 -9 -9 -9 -9 -9 -9 -10 -10 -10 -10 -10 -10 -10 -10 -10 -11 -11 -11 -11 -11 -11
-10 -10 -10 -10 -10 -10 -10 -10 -9 -9 -9 -9 -10 -10 -9 -9 -9 -9 -9 -9 -9 -9 -9 -9 -9 -9 -9 -9 -10 -10 -10 -10 -10 -10 -11 -10 -11 -10 -10 -11 -11 -11 -11 -11 -11
-10 -10 -10 -10 -10 -10 -10 -10 -10 -10 -10 -10 -10 -10 -10 -10 -10 -9 -9 -9 -9 -9 -9 -9 -9 -10 -10 -10 -10 -10 -10 -10 -10 -11 -11 -11 -11 -11 -11 -10 -10 -11 -11 -11 -11
-10 -10 -10 -10 -10 -10 -10 -10 -10 -10 -10 -10 -10 -10 -10 -10 -10 -10 -9 -9 -9 -9 -9 -10 -10 -10 -10 -10 -10 -10 -10 -10 -10 -11 -11 -11 -11 -10 -11 -10 -10 -11 -11 -10 -10
-10 -10 -10 -10 -10 -10 -10 -10 -10 -10 -10 -10 -10 -10 -10 -10 -10 -10 -10 -10 -10 -10 -10 -10 -10 -10 -10 -10 -10 -10 -10 -10 -11 -11 -11 -11 -11 -11 -11 -10 -10 -10 -11 -11 -10
-11 -11 -10 -10 -10 -10 -10 -10 -10 -10 -10 -10 -10 -10 -10 -10 -10 -10 -10 -10 -10 -10 -10 -10 -10 -10 -10 -10 -10 -10 -10 -11 -11 -10 -10 -10 -11 -11 -11 -11 -11 -11 -10 -10 -10
-11 -11 -11 -11 -11 -11 -10 -10 -10 -10 -10 -10 -10 -10 -10 -10 -10 -10 -10 -10 -10 -10 -10 -10 -10 -10 -11 -10 -10 -11 -11 -11 -11 -10 -10 -10 -10 -11 -11 -11 -11 -11 -11 -10 -10
-12 -11 -11 -11 -11 -11 -11 -11 -11 -11 -11 -11 -11 -11 -11 -11 -11 -11 -11 -11 -10 -11 -11 -11 -11 -11 -11 -11 -11 -11 -10 -10 -11 -11 -10 -10 -9 -10 -11 -11 -12 -12 -11 -10 -10
-12 -12 -11 -11 -11 -11 -11 -11 -11 -11 -11 -11 -11 -11 -11 -11 -11 -11 -11 -11 -11 -11 -11 -11 -11 -11 -11 -11 -11 -10 -10 -10 -11 -11 -11 -10 -10 -10 -10 -11 -11 -10 -11 -11 -11
-12 -12 -12 -12 -12 -12 -11 -11 -11 -11 -11 -11 -11 -11 -11 -11 -11 -11 -11 -11 -11 -11 -11 -11 -10 -11 -11 -11 -11 -11 -11 -10 -11 -11 -11 -11 -11 -11 -11 -12 -12 -11 -11 -12 -12
-12 -12 -12 -12 -12 -12 -12 -12 -11 -11 -11 -12 -12 -11 -11 -11 -11 -11 -11 -11 -11 -11 -11 -10 -10 -11 -11 -11 -11 -11 -11 -11 -11 -11 -11 -11 -11 -11 -12 -12 -12 -12 -12 -12 -12
-13 -13 -12 -12 -12 -12 -12 -12 -12 -12 -11 -11 -11 -11 -11 -11 -11 -11 -11 -11 -11 -11 -11 -11 -11 -11 -11 -11 -12 -12 -12 -12 -12 -12 -12 -12 -11 -12 -13 -13 -13 -13 -13 -13 -13
-13 -13 -12 -12 -12 -12 -12 -12 -12 -12 -11 -11 -11 -11 -11 -11 -11 -11 -11 -11 -11 -12 -12 -11 -11 -12 -12 -12 -12 -12 -12 -12 -12 -12 -13 -13 -11 -12 -13 -13 -13 -13 -13 -13 -14
-13 -13 -13 -13 -12 -13 -13 -12 -12 -12 -11 -11 -11 -11 -11 -11 -11 -11 -12 -12 -12 -12 -12 -12 -12 -12 -12 -12 -12 -12 -13 -13 -13 -13 -13 -13 -13 -12 -13 -14 -14 -14 -15 -15 -15
-13 -13 -13 -13 -13 -13 -13 -13 -12 -12 -11 -11 -12 -12 -12 -12 -12 -12 -12 -12 -12 -12 -12 -12 -12 -13 -13 -13 -13 -13 -13 -14 -14 -14 -13 -14 -14 -12 -14 -14 -15 -14 -15 -15 -16
-13 -13 -13 -13 -13 -13 -13 -13 -13 -12 -12 -12 -13 -13 -13 -13 -13 -13 -13 -13 -13 -13 -13 -13 -13 -14 -14 -14 -14 -15 -15 -15 -15 -14 -14 -14 -14 -14 -14 -14 -14 -15 -15 -16 -16
-13 -13 -13 -13 -13 -13 -14 -14 -13 -12 -13 -13 -14 -14 -14 -14 -14 -14 -14 -14 -14 -14 -14 -14 -14 -15 -15 -15 -15 -15 -16 -16 -16 -15 -15 -15 -14 -14 -15 -15 -15 -16 -16 -16 -17
-14 -14 -14 -14 -14 -14 -14 -14 -13 -13 -14 -14 -14 -14 -14 -14 -15 -15 -15 -15 -15 -16 -16 -16 -16 -16 -16 -16 -16 -15 -16 -16 -16 -16 -16 -15 -15 -15 -16 -16 -16 -17 -17 -16 -17
-14 -15 -14 -14 -14 -15 -15 -14 -14 -14 -15 -14 -14 -14 -15 -15 -15 -16 -16 -16 -16 -16 -16 -16 -16 -16 -16 -16 -16 -17 -17 -17 -17 -18 -18 -16 -16 -17 -17 -18 -18 -18 -18 -18 -18
-15 -15 -14 -15 -15 -15 -14 -14 -14 -15 -15 -15 -15 -15 -15 -16 -16 -16 -16 -16 -16 -16 -16 -16 -16 -16 -16 -16 -17 -18 -18 -18 -19 -19 -19 -19 -18 -18 -19 -19 -18 -19 -19 -19 -19
-15 -15 -15 -15 -15 -15 -15 -15 -15 -16 -16 -15 -15 -16 -16 -17 -16 -16 -16 -16 -16 -17 -17 -17 -17 -16 -17 -18 -18 -18 -18 -19 -19 -19 -20 -20 -19 -19 -19 -20 -20 -20 -20 -20 -21
-15 -15 -15 -15 -15 -15 -15 -15 -16 -16 -16 -16 -16 -16 -16 -16 -17 -17 -18 -18 -18 -17 -17 -18 -18 -17 -17 -18 -19 -20 -20 -20 -20 -20 -20 -21 -20 -21 -21 -22 -22 -22 -21 -22 -22
-16 -16 -15 -15 -15 -16 -16 -16 -17 -17 -17 -18 -18 -18 -18 -17 -18 -18 -18 -18 -18 -18 -18 -18 -18 -19 -18 -20 -20 -20 -20 -20 -21 -21 -22 -21 -22 -21 -22 -23 -23 -23 -23 -23 -23
-17 -17 -16 -16 -16 -17 -18 -17 -18 -18 -18 -18 -18 -18 -18 -18 -19 -18 -19 -19 -19 -19 -19 -19 -20 -20 -20 -20 -20 -20 -20 -20 -22 -22 -24 -22 -23 -22 -23 -23 -23 -23 -24 -24 -24
-19 -18 -17 -18 -19 -18 -18 -18 -19 -19 -19 -19 -19 -19 -19 -19 -19 -19 -20 -20 -20 -20 -20 -21 -21 -21 -21 -21 -21 -21 -20 -21 -22 -23 -23 -24 -23 -24 -23 -24 -24 -24 -24 -24 -24
-19 -19 -18 -19 -19 -19 -19 -19 -19 -19 -19 -19 -19 -19 -20 -20 -20 -20 -20 -21 -21 -21 -21 -21 -21 -22 -22 -22 -23 -22 -21 -23 -23 -23 -23 -23 -23 -24 -24 -24 -24 -24 -24 -24 -25

GFSSW_500_temp_024.txt.gz
Temp
-10 -9 -9 -9 -9 -9 -9 -9 -9 -9 -9 -9 -9 -9 -9 -9 -9 -9 -9 -9 -9 -9 -9 -9 -9 -9 -9 -9 -9 -9 -10 -10 -10 -10 -10 -10 -11 -11 -11 -11 -11 -11 -11 -11 -11
-10 -10 -10 -10 -10 -10 -10 -10 -10 -10 -9 -9 -9 -9 -10 -10 -9 -9 -9 -9 -9 -9 -9 -9 -9 -9 -9 -9 -9 -10 -10 -10 -10 -10 -10 -10 -10 -11 -11 -11 -11 -11 -11 -11 -11
-10 -10 -10 -10 -10 -10 -10 -10 -10 -10 -9 -9 -9 -10 -10 -10 -10 -10 -10 -10 -9 -9 -9 -9 -9 -9 -9 -10 -10 -10 -10 -10 -10 -10 -10 -10 -11 -11 -10 -11 -11 -11 -11 -11 -10
-10 -10 -10 -10 -10 -10 -10 -10 -10 -10 -10 -10 -10 -10 -10 -10 -10 -10 -10 -9 -9 -9 -9 -9 -9 -10 -10 -10 -10 -10 -10 -10 -10 -10 -10 -11 -11 -11 -11 -10 -11 -11 -11 -11 -10
-10 -10 -10 -10 -10 -10 -10 -10 -10 -10 -10 -10 -10 -10 -10 -10 -10 -10 -10 -9 -9 -9 -9 -9 -9 -10 -10 -10 -10 -10 -10 -10 -11 -11 -11 -11 -11 -11 -11 -11 -11 -11 -11 -10 -10
-10 -10 -10 -10 -10 -10 -10 -10 -10 -10 -10 -10 -10 -10 -10 -10 -10 -10 -10 -10 -9 -9 -9 -10 -10 -10 -10 -10 -10 -10 -10 -10 -10 -11 -11 -11 -11 -11 -11 -11 -11 -11 -10 -10 -11
-11 -11 -10 -11 -10 -10 -10 -10 -10 -10 -10 -10 -10 -10 -10 -10 -10 -10 -10 -10 -10 -10 -10 -10 -10 -10 -10 -10 -10 -10 -10 -11 -10 -10 -11 -11 -11 -11 -11 -11 -12 -11 -10 -10 -10
-11 -11 -11 -11 -11 -11 -10 -10 -10 -10 -10 -10 -10 -10 -10 -10 -10 -10 -10 -10 -10 -10 -10 -10 -10 -10 -10 -10 -10 -10 -11 -11 -11 -11 -10 -10 -10 -11 -11 -11 -12 -11 -11 -10 -11
-12 -12 -11 -11 -11 -11 -11 -11 -11 -11 -11 -11 -11 -10 -11 -11 -11 -11 -11 -11 -10 -11 -11 -11 -11 -11 -10 -10 -10 -10 -10 -10 -11 -11 -10 -10 -10 -10 -11 -11 -11 -11 -11 -11 -11
-12 -12 -12 -12 -11 -11 -11 -11 -11 -11 -11 -11 -11 -11 -11 -11 -11 -11 -11 -11 -11 -11 -11 -11 -10 -10 -11 -11 -10 -10 -10 -10 -10 -11 -10 -10 -10 -10 -10 -11 -10 -10 -11 -11 -11
-12 -12 -12 -11 -12 -12 -11 -12 -11 -11 -11 -11 -11 -11 -11 -11 -11 -11 -11 -11 -11 -11 -11 -10 -10 -11 -11 -11 -11 -11 -11 -10 -11 -11 -10 -11 -11 -11 -12 -11 -11 -11 -11 -11 -11
-12 -12 -12 -12 -12 -12 -12 -12 -12 -12 -11 -11 -11 -11 -11 -11 -11 -11 -11 -11 -11 -11 -11 -10 -10 -11 -11 -11 -11 -11 -11 -11 -11 -11 -11 -11 -11 -11 -12 -12 -12 -12 -12 -13 -12
-12 -12 -12 -12 -12 -12 -12 -12 -12 -12 -12 -12 -12 -11 -12 -11 -11 -12 -11 -11 -11 -11 -11 -11 -11 -11 -11 -11 -11 -11 -11 -11 -11 -11 -11 -11 -11 -12 -12 -12 -13 -13 -13 -13 -14
-13 -13 -13 -13 -13 -13 -13 -13 -12 -12 -12 -11 -11 -11 -11 -11 -11 -11 -11 -11 -11 -12 -11 -11 -12 -11 -12 -12 -12 -12 -12 -12 -12 -11 -11 -12 -11 -12 -13 -13 -13 -13 -13 -14 -13
-14 -13 -13 -13 -13 -13 -13 -13 -13 -13 -12 -11 -11 -11 -11 -11 -12 -12 -12 -12 -12 -12 -12 -12 -12 -12 -12 -12 -12 -13 -13 -13 -13 -12 -12 -12 -12 -11 -12 -13 -13 -13 -14 -14 -14
-13 -12 -13 -13 -13 -14 -13 -13 -14 -13 -12 -12 -12 -12 -12 -12 -12 -12 -12 -12 -12 -12 -12 -12 -12 -13 -13 -13 -13 -13 -13 -14 -14 -14 -13 -13 -13 -12 -13 -14 -14 -14 -14 -15 -15
-13 -13 -13 -13 -13 -13 -13 -13 -14 -13 -12 -12 -12 -13 -13 -13 -13 -13 -12 -12 -13 -12 -13 -13 -13 -13 -13 -14 -14 -14 -15 -15 -15 -14 -14 -14 -14 -13 -14 -14 -14 -15 -15 -16 -16
-13 -13 -13 -13 -13 -14 -13 -14 -13 -11 -13 -13 -13 -13 -13 -13 -13 -13 -13 -13 -13 -13 -14 -14 -14 -14 -14 -15 -15 -15 -15 -15 -16 -15 -15 -15 -14 -13 -14 -14 -15 -16 -16 -17 -17
-14 -14 -13 -13 -14 -14 -14 -14 -12 -12 -13 -13 -14 -14 -13 -14 -14 -14 -13 -14 -14 -14 -14 -14 -14 -15 -15 -16 -16 -16 -16 -16 -16 -16 -15 -14 -14 -14 -14 -15 -16 -16 -17 -17 -17
-13 -14 -13 -14 -14 -15 -14 -13 -13 -13 -13 -13 -13 -14 -14 -15 -14 -14 -14 -14 -14 -15 -15 -16 -16 -16 -16 -16 -16 -16 -16 -16 -16 -16 -16 -15 -15 -15 -15 -16 -16 -17 -17 -18 -18
-14 -14 -14 -14 -15 -15 -14 -13 -13 -14 -14 -15 -15 -15 -14 -15 -15 -15 -14 -14 -15 -16 -17 -17 -17 -16 -16 -16 -16 -17 -16 -17 -17 -17 -17 -17 -16 -16 -17 -18 -18 -18 -19 -19 -19
-14 -14 -14 -15 -15 -14 -14 -14 -14 -14 -15 -15 -15 -15 -15 -15 -16 -15 -15 -16 -15 -16 -16 -16 -16 -16 -16 -16 -17 -17 -17 -17 -18 -18 -19 -19 -17 -18 -18 -19 -19 -20 -20 -20 -20
-14 -14 -15 -15 -15 -15 -15 -15 -15 -15 -15 -15 -15 -16 -16 -16 -16 -16 -16 -16 -16 -16 -16 -17 -17 -16 -17 -17 -18 -18 -18 -18 -18 -19 -19 -20 -18 -19 -19 -20 -21 -20 -20 -21 -21
-14 -15 -15 -15 -15 -15 -15 -16 -15 -16 -16 -16 -16 -17 -16 -17 -17 -17 -17 -17 -18 -18 -18 -18 -18 -18 -18 -18 -18 -18 -18 -19 -19 -20 -20 -19 -20 -20 -21 -22 -22 -22 -22 -22 -22
-15 -16 -15 -15 -15 -15 -16 -16 -15 -16 -16 -16 -17 -17 -17 -18 -18 -18 -19 -19 -19 -19 -19 -19 -19 -19 -19 -19 -19 -19 -19 -19 -20 -20 -21 -20 -22 -21 -22 -23 -23 -23 -24 -24 -24
-15 -15 -16 -16 -16 -16 -16 -16 -15 -16 -16 -16 -17 -18 -18 -18 -19 -20 -20 -19 -19 -19 -19 -19 -20 -20 -20 -20 -20 -20 -20 -20 -20 -21 -23 -23 -23 -23 -24 -24 -24 -24 -24 -24 -24
-16 -17 -18 -17 -16 -17 -16 -17 -17 -18 -18 -19 -18 -19 -19 -19 -20 -20 -19 -19 -19 -19 -20 -20 -21 -21 -21 -21 -21 -21 -20 -21 -22 -22 -23 -23 -24 -24 -24 -24 -24 -24 -24 -24 -24

GFSSW_500_temp_027.txt.gz
Temp
-10 -10 -10 -10 -10 -9 -10 -9 -9 -9 -9 -9 -9 -9 -9 -10 -9 -9 -9 -9 -9 -9 -9 -9 -9 -9 -9 -9 -9 -10 -10 -10 -10 -10 -10 -10 -10 -11 -11 -11 -11 -11 -11 -11 -11
-10 -10 -10 -10 -10 -10 -10 -10 -10 -10 -10 -10 -10 -9 -9 -10 -10 -10 -10 -10 -10 -10 -10 -10 -10 -9 -9 -9 -9 -10 -10 -10 -10 -10 -10 -10 -10 -11 -11 -11 -11 -11 -10 -10 -10
-10 -10 -10 -10 -10 -10 -10 -10 -10 -10 -10 -10 -10 -10 -10 -10 -10 -10 -10 -10 -10 -10 -10 -9 -9 -9 -9 -9 -9 -10 -10 -10 -10 -10 -10 -10 -10 -11 -11 -11 -11 -11 -10 -10 -10
-10 -10 -10 -10 -10 -10 -10 -10 -10 -10 -10 -10 -10 -10 -10 -10 -10 -10 -10 -10 -10 -10 -10 -10 -10 -9 -10 -10 -10 -10 -10 -10 -10 -10 -10 -10 -11 -11 -11 -11 -11 -11 -11 -11 -11
-10 -10 -10 -10 -10 -10 -10 -10 -10 -10 -10 -10 -10 -10 -10 -10 -10 -10 -10 -10 -10 -10 -10 -10 -10 -10 -9 -10 -10 -10 -10 -11 -11 -10 -10 -11 -11 -11 -11 -11 -11 -11 -11 -11 -11
-10 -10 -10 -10 -10 -10 -10 -10 -10 -10 -10 -10 -10 -10 -10 -10 -10 -10 -10 -10 -10 -10 -10 -10 -10 -10 -10 -10 -10 -10 -10 -10 -10 -11 -11 -11 -11 -11 -11 -11 -11 -11 -10 -11 -11
-11 -11 -11 -11 -10 -10 -10 -10 -10 -10 -10 -10 -10 -10 -10 -10 -10 -10 -10 -10 -10 -10 -10 -10 -10 -10 -10 -10 -10 -10 -10 -10 -10 -10 -10 -11 -11 -11 -11 -11 -11 -11 -10 -10 -10
-11 -11 -11 -11 -11 -11 -11 -11 -10 -10 -10 -10 -10 -10 -10 -10 -10 -10 -10 -10 -10 -10 -10 -10 -10 -10 -10 -10 -10 -10 -10 -10 -11 -11 -11 -10 -11 -11 -11 -11 -11 -11 -11 -11 -11
-12 -12 -12 -11 -11 -11 -11 -11 -11 -11 -11 -11 -11 -11 -11 -11 -10 -10 -11 -11 -11 -10 -10 -10 -10 -10 -10 -10 -10 -10 -10 -10 -10 -10 -10 -10 -10 -11 -11 -11 -11 -11 -11 -11 -11
-12 -12 -12 -12 -12 -12 -12 -11 -11 -11 -11 -11 -11 -11 -11 -11 -11 -11 -11 -11 -11 -11 -11 -11 -10 -10 -11 -11 -10 -10 -10 -10 -11 -11 -10 -10 -11 -11 -12 -11 -11 -11 -11 -11 -11
-12 -12 -12 -12 -12 -12 -12 -12 -12 -12 -12 -11 -11 -11 -11 -11 -11 -11 -11 -11 -11 -11 -11 -10 -10 -11 -11 -10 -10 -10 -10 -10 -11 -12 -11 -11 -11 -12 -11 -11 -11 -12 -12 -12 -11
-13 -12 -12 -12 -12 -12 -12 -12 -12 -12 -12 -12 -11 -11 -11 -11 -11 -11 -11 -11 -11 -11 -11 -10 -10 -11 -11 -10 -10 -11 -11 -11 -11 -12 -10 -11 -11 -11 -12 -12 -12 -12 -12 -12 -12
-13 -13 -13 -12 -12 -12 -12 -13 -12 -12 -11 -11 -11 -11 -11 -11 -11 -11 -11 -11 -11 -11 -11 -11 -11 -11 -11 -11 -11 -11 -11 -11 -11 -12 -11 -11 -11 -12 -12 -12 -12 -13 -13 -13 -13
-13 -13 -13 -13 -12 -13 -13 -13 -13 -12 -12 -11 -11 -11 -11 -12 -11 -11 -11 -11 -11 -11 -11 -10 -11 -11 -11 -11 -11 -11 -12 -11 -12 -12 -12 -12 -11 -12 -13 -13 -13 -13 -13 -13 -13
-13 -13 -12 -13 -13 -13 -13 -13 -13 -13 -12 -11 -11 -11 -12 -12 -11 -11 -11 -11 -11 -11 -11 -11 -11 -12 -12 -12 -12 -12 -12 -12 -12 -12 -11 -12 -12 -11 -12 -12 -13 -13 -13 -13 -13
-13 -14 -13 -13 -13 -13 -14 -14 -14 -14 -11 -11 -11 -11 -11 -12 -11 -12 -12 -12 -12 -12 -12 -12 -12 -13 -12 -12 -12 -13 -13 -12 -12 -12 -11 -12 -13 -11 -12 -13 -13 -14 -14 -14 -14
-13 -14 -14 -13 -14 -14 -13 -14 -14 -12 -11 -11 -12 -12 -12 -12 -12 -12 -12 -12 -12 -12 -13 -13 -13 -13 -13 -13 -13 -13 -13 -14 -13 -13 -12 -12 -12 -12 -13 -14 -14 -14 -14 -14 -14
-13 -14 -13 -13 -14 -14 -14 -14 -14 -11 -12 -12 -12 -12 -12 -13 -13 -13 -13 -13 -13 -13 -13 -13 -13 -13 -13 -13 -13 -13 -14 -14 -14 -14 -14 -14 -12 -13 -14 -14 -14 -14 -15 -15 -15
-14 -14 -13 -13 -14 -14 -14 -15 -11 -11 -12 -13 -13 -13 -13 -13 -14 -14 -13 -13 -13 -13 -14 -14 -13 -14 -14 -14 -14 -14 -15 -16 -16 -15 -15 -14 -14 -14 -14 -15 -15 -15 -15 -16 -16
-14 -14 -14 -13 -14 -14 -14 -14 -13 -12 -12 -13 -13 -13 -13 -14 -14 -14 -14 -13 -14 -14 -14 -14 -14 -15 -15 -15 -16 -16 -16 -16 -16 -16 -16 -15 -14 -14 -14 -15 -15 -15 -16 -16 -17
-14 -13 -13 -14 -14 -14 -14 -14 -13 -13 -13 -14 -14 -14 -13 -14 -14 -14 -14 -14 -14 -15 -15 -15 -15 -14 -15 -16 -16 -17 -16 -16 -17 -16 -16 -16 -14 -15 -15 -16 -16 -17 -17 -17 -18
-14 -13 -13 -14 -14 -14 -14 -14 -13 -14 -14 -14 -14 -14 -14 -14 -14 -14 -14 -15 -15 -15 -16 -16 -16 -15 -16 -16 -17 -17 -17 -17 -17 -17 -17 -18 -15 -16 -17 -17 -18 -18 -19 -19 -19
-14 -14 -14 -14 -14 -14 -14 -14 -13 -13 -14 -15 -15 -15 -15 -15 -15 -15 -15 -15 -15 -16 -16 -17 -16 -16 -16 -16 -17 -17 -17 -17 -18 -18 -17 -18 -17 -17 -18 -19 -19 -20 -20 -20 -20
-15 -14 -14 -14 -14 -14 -14 -14 -14 -15 -15 -15 -15 -15 -15 -15 -15 -15 -15 -16 -16 -17 -17 -17 -17 -17 -17 -17 -17 -17 -17 -17 -18 -18 -18 -18 -18 -19 -19 -20 -20 -21 -21 -20 -21
-15 -14 -14 -14 -14 -14 -15 -15 -15 -15 -15 -15 -15 -15 -15 -16 -16 -15 -16 -17 -17 -17 -17 -18 -18 -18 -18 -18 -18 -18 -18 -18 -19 -19 -19 -19 -19 -20 -21 -22 -22 -21 -22 -22 -22
-16 -15 -15 -15 -15 -14 -15 -14 -15 -15 -15 -15 -15 -16 -16 -16 -16 -16 -17 -17 -17 -17 -17 -18 -18 -19 -19 -19 -19 -19 -18 -18 -19 -19 -20 -20 -20 -21 -21 -22 -22 -23 -23 -24 -24
-16 -15 -15 -16 -16 -16 -16 -15 -15 -16 -15 -16 -16 -16 -16 -16 -16 -18 -19 -18 -18 -18 -18 -19 -19 -19 -19 -19 -19 -19 -18 -19 -20 -20 -21 -21 -21 -22 -23 -23 -23 -24 -24 -24 -25

GFSSW_500_temp_030.txt.gz
Temp
-10 -10 -10 -10 -9 -9 -9 -9 -10 -10 -10 -10 -10 -10 -10 -10 -10 -10 -10 -10 -10 -10 -10 -10 -10 -10 -10 -10 -10 -10 -9 -10 -10 -10 -10 -10 -10 -11 -11 -11 -11 -11 -11 -11 -11
-10 -10 -10 -10 -10 -10 -10 -10 -10 -10 -10 -10 -10 -10 -10 -10 -10 -10 -10 -10 -10 -10 -10 -10 -10 -10 -10 -10 -10 -10 -9 -10 -10 -10 -10 -10 -10 -11 -11 -11 -11 -11 -11 -11 -11
-10 -10 -10 -10 -10 -10 -10 -10 -10 -10 -10 -10 -10 -10 -10 -10 -10 -10 -10 -10 -10 -10 -10 -10 -10 -10 -10 -10 -10 -10 -10 -10 -10 -10 -10 -10 -10 -10 -11 -11 -11 -10 -10 -10 -10
-10 -10 -10 -10 -10 -10 -10 -10 -10 -10 -10 -10 -10 -10 -10 -10 -10 -10 -10 -10 -10 -10 -10 -10 -10 -10 -10 -10 -10 -10 -10 -10 -10 -10 -10 -10 -10 -10 -11 -11 -11 -11 -11 -11 -10
-10 -10 -10 -10 -10 -10 -10 -10 -10 -10 -10 -10 -10 -10 -10 -10 -10 -10 -10 -10 -10 -10 -10 -10 -10 -10 -10 -10 -10 -10 -10 -10 -11 -10 -10 -10 -10 -11 -11 -11 -11 -11 -11 -11 -11
-11 -10 -10 -10 -10 -10 -10 -10 -10 -10 -10 -10 -10 -10 -10 -10 -10 -10 -10 -10 -10 -10 -10 -10 -10 -10 -10 -10 -10 -10 -11 -11 -11 -10 -10 -11 -11 -11 -11 -11 -11 -11 -11 -11 -11
-11 -11 -11 -11 -11 -10 -10 -10 -10 -10 -10 -10 -10 -10 -10 -10 -10 -10 -10 -10 -10 -10 -10 -10 -10 -10 -10 -10 -10 -10 -10 -10 -10 -11 -11 -11 -11 -11 -11 -11 -11 -11 -11 -11 -11
-11 -11 -11 -11 -11 -11 -11 -11 -11 -11 -11 -11 -10 -10 -10 -10 -10 -10 -10 -10 -10 -10 -10 -10 -10 -10 -10 -10 -10 -10 -10 -11 -11 -10 -10 -10 -11 -11 -10 -10 -10 -10 -11 -11 -11
-12 -12 -11 -11 -11 -11 -11 -11 -11 -11 -11 -11 -11 -11 -10 -11 -10 -10 -10 -10 -10 -10 -10 -10 -10 -10 -10 -10 -10 -10 -10 -10 -11 -10 -10 -10 -10 -11 -10 -10 -10 -11 -11 -11 -11
-12 -12 -12 -12 -12 -12 -11 -11 -11 -11 -11 -11 -11 -11 -11 -11 -11 -11 -11 -11 -11 -11 -11 -11 -10 -10 -11 -11 -10 -10 -10 -10 -11 -10 -10 -10 -10 -11 -11 -11 -11 -11 -11 -11 -11
-12 -13 -13 -12 -12 -12 -12 -12 -12 -12 -12 -12 -11 -11 -11 -11 -11 -11 -11 -11 -11 -11 -11 -10 -10 -11 -11 -11 -10 -10 -10 -10 -11 -11 -10 -10 -10 -11 -11 -11 -11 -11 -11 -11 -11
-13 -12 -13 -12 -13 -13 -12 -12 -12 -12 -12 -12 -12 -11 -11 -11 -11 -11 -11 -11 -11 -11 -11 -11 -10 -11 -11 -10 -10 -10 -10 -10 -11 -11 -10 -10 -10 -11 -11 -11 -11 -11 -11 -12 -12
-13 -13 -13 -13 -13 -12 -13 -13 -13 -12 -12 -12 -12 -11 -12 -11 -11 -11 -12 -11 -11 -11 -11 -11 -11 -11 -11 -11 -11 -10 -11 -11 -11 -11 -11 -10 -10 -11 -11 -11 -11 -11 -12 -12 -12
-13 -13 -13 -13 -13 -13 -13 -13 -13 -13 -12 -11 -12 -11 -11 -12 -11 -11 -11 -11 -11 -11 -11 -10 -11 -11 -11 -11 -11 -10 -11 -11 -11 -11 -11 -11 -10 -10 -11 -12 -12 -12 -12 -13 -13
-13 -13 -13 -13 -13 -13 -14 -14 -14 -14 -12 -11 -11 -11 -12 -12 -11 -11 -12 -11 -11 -11 -11 -10 -10 -11 -11 -11 -11 -11 -12 -12 -12 -11 -10 -11 -11 -10 -11 -13 -13 -13 -13 -13 -13
-14 -14 -14 -13 -13 -14 -14 -14 -14 -14 -11 -11 -11 -11 -11 -12 -12 -12 -12 -12 -12 -11 -11 -11 -11 -11 -12 -12 -12 -12 -12 -12 -12 -12 -10 -12 -12 -9 -11 -12 -13 -13 -14 -14 -14
-13 -13 -13 -13 -13 -14 -14 -14 -15 -13 -11 -11 -11 -12 -12 -12 -12 -12 -12 -12 -12 -11 -11 -12 -12 -12 -12 -12 -12 -13 -13 -13 -12 -12 -12 -12 -12 -11 -12 -12 -13 -14 -14 -14 -15
-13 -13 -13 -13 -13 -14 -14 -14 -14 -10 -11 -12 -12 -12 -13 -13 -13 -13 -12 -12 -12 -12 -12 -12 -13 -13 -13 -13 -13 -13 -13 -13 -13 -13 -12 -12 -11 -11 -12 -13 -14 -14 -14 -15 -14
-14 -14 -13 -13 -13 -14 -14 -14 -11 -11 -12 -13 -13 -12 -12 -13 -13 -12 -12 -12 -12 -13 -13 -13 -13 -13 -14 -14 -14 -13 -13 -14 -14 -13 -12 -11 -12 -13 -14 -14 -15 -15 -15 -15 -15
-14 -14 -14 -14 -14 -14 -14 -15 -12 -12 -12 -13 -12 -13 -12 -13 -13 -13 -13 -12 -13 -14 -14 -14 -14 -14 -14 -14 -14 -14 -14 -15 -15 -14 -13 -12 -13 -14 -15 -15 -16 -16 -16 -16 -16
-14 -14 -14 -14 -14 -14 -15 -14 -13 -13 -13 -13 -13 -13 -13 -13 -13 -13 -13 -14 -14 -15 -15 -15 -15 -14 -14 -14 -15 -15 -14 -15 -16 -16 -16 -14 -14 -15 -15 -16 -16 -17 -17 -17 -17
-14 -14 -14 -14 -14 -14 -14 -14 -13 -13 -13 -13 -13 -14 -14 -14 -14 -14 -14 -14 -14 -15 -15 -15 -15 -14 -15 -14 -15 -15 -15 -16 -16 -16 -16 -16 -13 -15 -16 -16 -17 -17 -17 -18 -18
-14 -14 -14 -14 -14 -14 -14 -14 -14 -13 -13 -13 -13 -13 -14 -14 -15 -14 -14 -15 -15 -15 -16 -15 -15 -15 -14 -15 -15 -15 -16 -17 -17 -17 -16 -17 -16 -17 -17 -17 -18 -18 -18 -19 -19
-15 -15 -14 -14 -14 -14 -14 -14 -14 -14 -13 -13 -14 -14 -14 -14 -14 -14 -15 -15 -15 -16 -16 -16 -15 -14 -15 -16 -15 -15 -16 -17 -17 -17 -17 -17 -17 -17 -18 -18 -19 -19 -20 -20 -20
-16 -15 -15 -15 -15 -14 -14 -14 -14 -14 -14 -14 -14 -14 -15 -15 -15 -15 -15 -15 -16 -16 -16 -16 -15 -16 -16 -16 -17 -16 -16 -16 -17 -17 -18 -18 -18 -19 -19 -20 -20 -20 -20 -21 -21
-17 -16 -16 -15 -15 -15 -15 -15 -14 -14 -14 -14 -14 -14 -14 -15 -15 -15 -15 -16 -16 -16 -16 -17 -17 -17 -17 -17 -17 -17 -16 -16 -17 -17 -18 -19 -18 -19 -21 -20 -20 -20 -21 -21 -22
-17 -17 -16 -16 -16 -16 -15 -15 -15 -15 -14 -15 -15 -15 -15 -15 -15 -15 -15 -16 -16 -16 -17 -18 -18 -18 -17 -17 -18 -17 -15 -17 -18 -18 -19 -20 -20 -21 -21 -21 -21 -21 -22 -22 -23

GFSSW_500_temp_033.txt.gz
Temp
-10 -10 -10 -10 -10 -10 -9 -9 -10 -10 -10 -10 -10 -10 -10 -10 -10 -10 -10 -10 -10 -10 -10 -10 -10 -10 -10 -10 -10 -10 -10 -10 -10 -10 -10 -10 -10 -11 -11 -10 -11 -11 -11 -11 -11
-10 -10 -10 -10 -10 -10 -10 -10 -10 -10 -10 -10 -10 -10 -10 -10 -10 -10 -10 -10 -10 -10 -10 -10 -10 -10 -10 -10 -10 -10 -10 -10 -10 -10 -10 -10 -10 -11 -10 -10 -11 -11 -11 -11 -11
-11 -10 -10 -10 -10 -10 -10 -10 -10 -10 -10 -10 -10 -10 -10 -10 -10 -10 -10 -10 -10 -10 -10 -10 -10 -10 -10 -10 -10 -10 -10 -10 -10 -10 -10 -10 -10 -11 -10 -10 -10 -11 -11 -11 -11
-11 -11 -10 -10 -10 -10 -10 -10 -10 -10 -10 -10 -10 -10 -10 -10 -10 -10 -10 -10 -10 -10 -10 -10 -10 -10 -10 -10 -10 -10 -10 -10 -10 -10 -10 -11 -10 -10 -10 -11 -10 -11 -11 -11 -11
-11 -11 -11 -10 -10 -10 -10 -10 -10 -10 -10 -10 -10 -10 -10 -10 -10 -10 -10 -10 -10 -10 -10 -10 -10 -10 -10 -10 -10 -10 -10 -10 -10 -10 -10 -10 -10 -10 -10 -10 -11 -11 -11 -11 -11
-11 -11 -11 -11 -11 -11 -10 -10 -10 -10 -10 -10 -10 -10 -10 -10 -10 -10 -10 -10 -10 -10 -10 -10 -10 -10 -10 -10 -10 -10 -10 -10 -10 -10 -10 -10 -10 -10 -10 -10 -10 -10 -10 -11 -11
-11 -11 -11 -11 -11 -11 -11 -11 -11 -10 -10 -10 -10 -10 -10 -10 -10 -10 -10 -10 -10 -10 -10 -10 -10 -10 -10 -10 -10 -10 -10 -10 -10 -10 -10 -10 -10 -10 -10 -10 -10 -10 -10 -10 -10
-12 -11 -11 -11 -11 -11 -11 -11 -11 -11 -11 -10 -10 -10 -10 -10 -10 -10 -10 -10 -10 -10 -10 -10 -10 -10 -10 -10 -10 -10 -10 -10 -10 -10 -10 -10 -11 -10 -10 -10 -10 -10 -10 -10 -11
-12 -12 -12 -11 -11 -11 -11 -11 -11 -11 -11 -11 -11 -10 -10 -11 -11 -10 -10 -10 -10 -10 -10 -10 -10 -10 -10 -11 -11 -10 -10 -11 -11 -11 -10 -10 -11 -10 -10 -10 -10 -10 -10 -11 -11
-12 -12 -12 -12 -12 -12 -12 -12 -11 -11 -11 -11 -11 -11 -10 -11 -11 -11 -11 -11 -11 -11 -10 -10 -10 -10 -11 -11 -10 -10 -10 -11 -11 -10 -10 -10 -10 -10 -10 -10 -10 -10 -11 -11 -10
-13 -13 -13 -12 -12 -12 -12 -12 -12 -12 -12 -12 -11 -11 -11 -11 -11 -11 -11 -11 -11 -11 -11 -11 -10 -11 -11 -10 -10 -10 -10 -11 -11 -10 -10 -10 -10 -11 -10 -10 -10 -10 -10 -10 -11
-13 -13 -13 -13 -13 -13 -13 -12 -13 -12 -12 -12 -12 -12 -12 -12 -11 -12 -12 -11 -11 -11 -11 -11 -11 -11 -11 -11 -10 -11 -11 -11 -11 -10 -10 -10 -10 -10 -10 -10 -10 -11 -11 -11 -11
-14 -14 -13 -13 -13 -13 -13 -13 -13 -13 -12 -12 -12 -12 -12 -12 -12 -12 -12 -11 -11 -11 -11 -11 -11 -11 -11 -11 -11 -11 -11 -11 -10 -10 -10 -10 -10 -10 -10 -11 -11 -11 -11 -11 -11
-13 -13 -13 -13 -13 -13 -14 -14 -13 -13 -12 -11 -12 -11 -11 -12 -11 -12 -12 -12 -12 -12 -12 -11 -11 -11 -11 -11 -11 -11 -11 -11 -10 -10 -10 -10 -9 -10 -11 -11 -12 -12 -12 -12 -12
-14 -14 -13 -13 -13 -14 -14 -15 -14 -13 -12 -11 -10 -11 -12 -12 -11 -12 -12 -12 -12 -12 -12 -11 -11 -11 -11 -11 -11 -10 -11 -11 -11 -11 -10 -11 -10 -10 -11 -12 -12 -12 -13 -13 -13
-14 -15 -14 -13 -13 -14 -14 -15 -14 -14 -11 -11 -11 -11 -11 -12 -12 -12 -12 -12 -12 -12 -12 -12 -12 -11 -11 -11 -11 -11 -11 -11 -11 -11 -10 -11 -11 -10 -11 -12 -13 -12 -13 -14 -13
-13 -13 -14 -14 -14 -15 -14 -14 -14 -13 -11 -11 -11 -11 -12 -12 -12 -13 -13 -13 -13 -13 -13 -12 -12 -12 -11 -12 -12 -12 -12 -12 -12 -11 -11 -11 -12 -11 -11 -12 -13 -13 -13 -13 -13
-13 -13 -13 -13 -14 -15 -15 -15 -15 -11 -12 -12 -12 -12 -12 -13 -12 -13 -13 -13 -13 -13 -13 -13 -12 -12 -12 -13 -13 -12 -12 -12 -12 -12 -12 -11 -11 -11 -12 -12 -13 -13 -14 -14 -14
-14 -14 -14 -14 -14 -15 -15 -15 -11 -11 -12 -13 -13 -13 -13 -13 -13 -13 -13 -12 -13 -14 -14 -13 -12 -13 -13 -13 -13 -13 -13 -14 -13 -13 -12 -12 -11 -12 -12 -13 -13 -14 -13 -13 -14
-15 -14 -14 -14 -14 -15 -15 -15 -12 -12 -13 -13 -12 -13 -12 -13 -13 -13 -13 -12 -12 -13 -14 -13 -13 -13 -13 -14 -13 -13 -13 -13 -13 -13 -13 -12 -11 -12 -12 -13 -14 -14 -15 -15 -15
-14 -15 -14 -15 -15 -15 -15 -13 -12 -13 -13 -13 -13 -13 -13 -13 -13 -13 -13 -13 -13 -13 -14 -14 -13 -13 -14 -13 -14 -14 -14 -14 -15 -14 -13 -13 -12 -12 -13 -13 -14 -15 -16 -16 -15
-14 -15 -14 -15 -15 -15 -14 -12 -13 -13 -14 -14 -13 -13 -13 -14 -14 -13 -13 -13 -14 -14 -14 -14 -14 -14 -14 -14 -14 -14 -14 -14 -14 -14 -14 -13 -12 -13 -14 -15 -15 -16 -16 -16 -16
-15 -15 -15 -15 -15 -15 -14 -14 -13 -13 -14 -13 -13 -13 -13 -14 -14 -13 -13 -14 -14 -14 -14 -15 -14 -14 -14 -14 -14 -14 -14 -15 -15 -16 -15 -15 -13 -15 -16 -16 -17 -17 -16 -17 -17
-16 -15 -15 -15 -15 -15 -15 -14 -14 -13 -14 -14 -13 -14 -14 -14 -14 -14 -13 -14 -14 -14 -15 -15 -15 -14 -14 -14 -15 -15 -15 -15 -16 -15 -15 -15 -16 -16 -17 -18 -17 -17 -17 -16 -17
-16 -16 -15 -15 -15 -15 -15 -15 -14 -14 -14 -15 -14 -14 -14 -14 -14 -14 -14 -14 -14 -15 -15 -15 -15 -15 -15 -15 -15 -14 -15 -15 -15 -16 -16 -16 -16 -17 -18 -18 -18 -18 -17 -17 -17
-17 -17 -16 -16 -16 -15 -15 -15 -15 -15 -14 -14 -14 -14 -15 -14 -14 -14 -14 -14 -14 -15 -15 -15 -15 -15 -15 -15 -16 -15 -15 -16 -16 -17 -17 -17 -17 -18 -18 -18 -18 -19 -18 -18 -19
-17 -17 -16 -17 -16 -16 -16 -16 -15 -16 -16 -15 -15 -15 -15 -15 -15 -15 -15 -15 -15 -15 -15 -15 -16 -16 -16 -16 -16 -16 -14 -16 -16 -17 -18 -17 -18 -19 -19 -19 -19 -19 -19 -19 -20

GFSSW_500_temp_036.txt.gz
Temp
-10 -10 -10 -10 -10 -10 -10 -10 -10 -10 -10 -10 -10 -10 -10 -10 -10 -10 -10 -10 -10 -10 -10 -10 -10 -10 -10 -10 -10 -10 -10 -10 -10 -10 -10 -10 -10 -10 -10 -10 -11 -11 -11 -11 -11
-10 -10 -10 -10 -10 -10 -10 -10 -10 -10 -10 -10 -10 -10 -10 -10 -10 -10 -10 -10 -10 -10 -10 -10 -10 -10 -10 -10 -10 -10 -10 -10 -10 -10 -10 -10 -10 -10 -10 -10 -11 -11 -11 -11 -11
-11 -11 -10 -10 -10 -10 -10 -10 -10 -10 -10 -10 -10 -10 -10 -10 -10 -10 -10 -10 -10 -10 -10 -10 -10 -10 -10 -10 -10 -10 -10 -10 -10 -10 -10 -10 -10 -10 -10 -10 -10 -11 -11 -11 -11
-11 -11 -11 -11 -10 -10 -10 -10 -10 -10 -10 -10 -10 -10 -10 -10 -10 -10 -10 -10 -10 -10 -10 -10 -10 -10 -10 -10 -10 -10 -10 -10 -10 -10 -10 -10 -10 -10 -10 -10 -10 -11 -11 -11 -11
-11 -11 -11 -11 -11 -11 -11 -10 -10 -10 -10 -10 -10 -10 -10 -10 -10 -10 -10 -10 -10 -10 -10 -10 -10 -10 -10 -10 -10 -10 -10 -10 -10 -10 -10 -10 -10 -10 -10 -10 -10 -10 -11 -11 -10
-12 -11 -11 -11 -11 -11 -11 -11 -11 -10 -10 -10 -10 -10 -10 -10 -10 -10 -10 -10 -10 -10 -10 -10 -10 -10 -10 -10 -10 -10 -10 -10 -10 -10 -10 -10 -10 -10 -10 -10 -10 -10 -10 -10 -10
-12 -12 -11 -11 -11 -11 -11 -11 -11 -11 -10 -10 -10 -10 -10 -10 -10 -10 -10 -10 -10 -10 -10 -10 -10 -10 -10 -10 -10 -10 -10 -10 -10 -10 -10 -10 -10 -10 -10 -10 -10 -10 -10 -10 -10
-12 -12 -12 -12 -11 -11 -11 -11 -11 -11 -11 -11 -11 -10 -10 -10 -10 -10 -10 -10 -10 -10 -10 -10 -10 -10 -10 -10 -10 -10 -10 -10 -10 -10 -10 -10 -10 -10 -10 -10 -10 -10 -10 -10 -10
-13 -12 -12 -12 -12 -12 -11 -11 -11 -11 -11 -11 -11 -10 -10 -11 -11 -10 -10 -10 -10 -10 -10 -10 -10 -10 -10 -10 -10 -10 -10 -10 -10 -10 -10 -11 -10 -10 -10 -10 -10 -10 -10 -10 -10
-13 -13 -13 -12 -12 -12 -12 -11 -11 -11 -11 -11 -11 -11 -10 -11 -11 -11 -11 -11 -10 -10 -10 -10 -10 -10 -11 -11 -11 -10 -10 -11 -11 -10 -10 -10 -11 -10 -10 -10 -10 -10 -10 -10 -10
-13 -13 -13 -13 -12 -12 -12 -12 -11 -11 -11 -11 -11 -11 -11 -11 -11 -11 -11 -11 -11 -11 -11 -11 -11 -11 -11 -11 -11 -11 -11 -11 -11 -10 -10 -10 -10 -10 -10 -10 -10 -10 -10 -10 -10
-13 -13 -13 -13 -13 -12 -12 -12 -12 -12 -11 -11 -11 -11 -11 -11 -11 -12 -11 -11 -11 -11 -11 -11 -11 -11 -11 -11 -11 -11 -11 -11 -11 -11 -10 -10 -10 -10 -10 -10 -10 -10 -10 -10 -10
-15 -14 -14 -13 -13 -13 -13 -13 -13 -13 -12 -12 -12 -11 -12 -12 -12 -12 -12 -12 -12 -12 -12 -11 -11 -11 -11 -11 -11 -11 -11 -11 -11 -11 -10 -10 -9 -10 -10 -10 -10 -10 -11 -11 -11
-15 -14 -14 -14 -13 -13 -13 -14 -13 -13 -12 -11 -12 -12 -12 -12 -11 -12 -12 -12 -12 -12 -12 -11 -11 -12 -12 -12 -12 -11 -12 -11 -11 -11 -10 -10 -9 -9 -10 -10 -11 -11 -11 -11 -11
-14 -14 -15 -14 -13 -14 -15 -15 -14 -14 -13 -12 -11 -11 -12 -12 -11 -12 -12 -12 -12 -12 -12 -11 -12 -12 -12 -12 -12 -11 -11 -11 -11 -11 -10 -10 -10 -9 -11 -11 -11 -11 -12 -12 -12
-14 -14 -14 -14 -13 -14 -15 -16 -16 -15 -11 -11 -11 -11 -11 -12 -12 -12 -12 -12 -12 -12 -12 -12 -12 -12 -12 -12 -12 -12 -12 -11 -11 -11 -10 -10 -11 -9 -11 -12 -11 -12 -12 -12 -12
-14 -14 -14 -13 -13 -15 -15 -16 -16 -13 -10 -10 -11 -11 -12 -12 -12 -13 -13 -13 -13 -13 -13 -13 -13 -13 -12 -13 -13 -12 -12 -12 -12 -11 -10 -10 -11 -10 -11 -12 -12 -12 -12 -12 -13
-14 -14 -14 -13 -14 -14 -14 -15 -15 -10 -11 -11 -11 -12 -12 -12 -12 -13 -14 -13 -13 -14 -14 -14 -13 -13 -13 -13 -13 -13 -12 -12 -12 -11 -11 -11 -10 -11 -11 -12 -12 -13 -13 -13 -13
-14 -14 -14 -14 -14 -14 -14 -15 -11 -11 -12 -12 -12 -12 -12 -13 -13 -13 -13 -14 -14 -14 -14 -14 -13 -13 -13 -13 -13 -13 -12 -13 -13 -12 -12 -11 -11 -11 -11 -12 -13 -13 -13 -14 -14
-15 -14 -14 -14 -14 -14 -15 -15 -12 -13 -13 -13 -14 -13 -13 -13 -14 -14 -13 -12 -14 -14 -15 -14 -13 -13 -13 -13 -13 -13 -13 -13 -13 -13 -12 -11 -11 -11 -12 -12 -13 -14 -14 -14 -14
-15 -15 -14 -15 -15 -16 -16 -13 -13 -13 -14 -14 -13 -14 -13 -14 -14 -13 -13 -13 -14 -15 -15 -14 -14 -13 -13 -12 -13 -13 -13 -14 -14 -13 -13 -12 -11 -12 -12 -13 -13 -13 -14 -14 -14
-15 -15 -15 -15 -15 -15 -15 -12 -14 -14 -14 -15 -14 -14 -13 -14 -14 -14 -13 -14 -15 -15 -14 -15 -14 -13 -13 -13 -13 -13 -13 -14 -13 -13 -13 -13 -12 -13 -13 -13 -14 -15 -15 -15 -15
-15 -15 -15 -15 -15 -15 -15 -14 -15 -14 -14 -15 -14 -14 -14 -14 -14 -14 -13 -14 -15 -14 -14 -15 -14 -14 -13 -12 -12 -12 -13 -13 -14 -14 -13 -14 -12 -13 -13 -14 -15 -15 -15 -15 -16
-16 -16 -16 -15 -15 -15 -15 -15 -15 -14 -15 -15 -14 -15 -15 -14 -14 -13 -13 -15 -15 -14 -15 -15 -15 -14 -13 -13 -14 -14 -14 -14 -14 -14 -13 -12 -13 -14 -14 -14 -15 -16 -16 -16 -16
-17 -16 -16 -16 -16 -16 -16 -15 -15 -15 -15 -15 -15 -14 -14 -15 -14 -13 -14 -15 -15 -14 -14 -15 -14 -14 -14 -14 -14 -14 -14 -14 -14 -13 -14 -13 -14 -15 -16 -16 -16 -16 -16 -16 -17
-17 -17 -17 -17 -16 -16 -16 -16 -15 -15 -15 -15 -15 -14 -15 -14 -14 -14 -15 -15 -15 -15 -15 -15 -14 -15 -14 -14 -14 -15 -14 -14 -14 -14 -14 -14 -14 -15 -16 -17 -17 -17 -17 -17 -18
-19 -17 -17 -17 -17 -17 -16 -16 -16 -16 -15 -15 -15 -15 -15 -14 -15 -15 -15 -15 -15 -15 -15 -15 -15 -15 -14 -15 -15 -15 -13 -14 -14 -15 -15 -15 -15 -17 -17 -17 -17 -17 -18 -18 -18

GFSSW_500_temp_042.txt.gz
Temp
-10 -10 -10 -10 -10 -10 -9 -9 -9 -10 -10 -10 -10 -10 -10 -10 -10 -10 -10 -10 -10 -10 -10 -10 -10 -10 -10 -10 -10 -10 -10 -10 -10 -10 -9 -10 -10 -10 -10 -10 -10 -10 -11 -11 -10
-10 -10 -10 -10 -10 -10 -10 -10 -10 -10 -10 -10 -10 -10 -10 -10 -10 -10 -10 -10 -10 -10 -10 -10 -10 -10 -10 -10 -10 -10 -10 -10 -10 -10 -10 -10 -10 -10 -10 -10 -10 -10 -10 -10 -11
-10 -10 -10 -10 -10 -10 -10 -10 -10 -10 -10 -10 -10 -10 -10 -10 -10 -10 -10 -10 -10 -10 -10 -10 -10 -10 -10 -10 -10 -10 -10 -10 -10 -10 -10 -10 -10 -10 -10 -10 -10 -10 -10 -11 -10
-11 -11 -10 -10 -10 -10 -10 -10 -10 -10 -10 -10 -10 -10 -10 -10 -10 -10 -10 -10 -10 -10 -10 -10 -10 -10 -10 -10 -10 -10 -10 -10 -10 -10 -10 -10 -10 -10 -10 -10 -10 -10 -10 -11 -11
-11 -11 -11 -11 -11 -11 -10 -10 -10 -10 -10 -10 -10 -10 -10 -10 -10 -10 -10 -10 -10 -10 -10 -10 -10 -10 -10 -10 -10 -10 -10 -10 -10 -10 -10 -10 -10 -10 -10 -10 -10 -10 -11 -11 -11
-12 -12 -11 -11 -11 -11 -11 -11 -11 -11 -11 -10 -10 -10 -10 -10 -10 -10 -10 -10 -10 -10 -10 -10 -10 -10 -10 -10 -10 -10 -10 -10 -10 -10 -10 -10 -10 -10 -10 -10 -10 -10 -10 -10 -10
-12 -12 -12 -12 -11 -11 -11 -11 -11 -11 -11 -11 -11 -10 -10 -10 -10 -10 -10 -10 -10 -10 -10 -10 -10 -10 -10 -10 -10 -10 -10 -10 -10 -10 -10 -10 -10 -11 -10 -10 -10 -10 -10 -10 -10
-13 -13 -12 -12 -12 -12 -12 -11 -11 -11 -11 -11 -11 -11 -10 -11 -10 -10 -10 -10 -10 -10 -10 -10 -10 -10 -10 -10 -10 -10 -10 -10 -10 -10 -10 -10 -10 -10 -11 -10 -10 -10 -10 -10 -10
-13 -13 -13 -13 -12 -12 -12 -12 -12 -11 -11 -11 -11 -11 -11 -11 -11 -11 -10 -10 -10 -10 -10 -10 -10 -10 -10 -10 -10 -10 -11 -10 -10 -10 -10 -10 -10 -10 -11 -10 -10 -10 -10 -10 -10
-14 -13 -13 -13 -13 -13 -13 -12 -12 -12 -12 -11 -11 -11 -11 -11 -11 -11 -11 -11 -10 -10 -10 -10 -10 -10 -10 -11 -11 -11 -10 -10 -11 -10 -11 -11 -11 -10 -10 -10 -10 -10 -10 -10 -10
-14 -14 -13 -13 -13 -13 -12 -12 -12 -12 -12 -12 -11 -11 -11 -11 -11 -11 -11 -11 -11 -11 -11 -11 -10 -10 -11 -11 -11 -11 -11 -11 -11 -11 -11 -11 -11 -11 -10 -10 -10 -10 -10 -10 -10
-14 -14 -14 -13 -13 -13 -13 -12 -12 -12 -12 -12 -12 -11 -11 -11 -11 -11 -11 -11 -11 -11 -11 -10 -10 -11 -11 -11 -11 -11 -11 -11 -12 -11 -11 -11 -11 -10 -10 -10 -10 -10 -10 -11 -10
-15 -14 -14 -14 -13 -13 -13 -13 -13 -13 -12 -12 -12 -11 -11 -11 -11 -11 -11 -11 -11 -11 -11 -11 -11 -11 -11 -12 -12 -12 -12 -12 -12 -12 -11 -11 -10 -10 -10 -10 -10 -11 -11 -10 -10
-15 -15 -14 -14 -13 -13 -13 -14 -14 -14 -13 -11 -12 -11 -11 -11 -11 -11 -12 -11 -11 -11 -12 -11 -11 -11 -12 -12 -12 -12 -13 -13 -12 -12 -11 -11 -9 -10 -10 -11 -10 -11 -11 -10 -10
-14 -15 -14 -15 -14 -14 -14 -15 -15 -14 -14 -12 -11 -11 -11 -12 -11 -11 -12 -12 -11 -12 -12 -11 -12 -12 -12 -12 -13 -12 -13 -13 -13 -13 -12 -11 -10 -9 -10 -10 -11 -10 -10 -10 -10
-17 -15 -15 -15 -15 -14 -14 -15 -15 -15 -13 -12 -11 -11 -11 -12 -12 -11 -12 -12 -12 -12 -12 -12 -12 -12 -12 -12 -13 -13 -13 -13 -13 -12 -11 -11 -11 -9 -10 -10 -10 -10 -10 -10 -10
-16 -16 -15 -15 -15 -15 -15 -15 -15 -14 -12 -11 -11 -11 -12 -12 -12 -12 -12 -12 -12 -12 -12 -12 -12 -12 -13 -13 -13 -13 -13 -13 -13 -12 -11 -11 -11 -9 -10 -11 -11 -11 -11 -11 -11
-16 -17 -16 -16 -15 -15 -15 -15 -15 -13 -12 -12 -12 -12 -12 -12 -11 -12 -12 -12 -12 -13 -13 -13 -13 -13 -13 -14 -14 -13 -14 -14 -13 -13 -12 -11 -10 -9 -10 -11 -12 -11 -11 -11 -12
-17 -17 -17 -16 -16 -16 -16 -15 -14 -12 -12 -14 -13 -13 -12 -11 -12 -12 -12 -12 -13 -14 -14 -14 -14 -13 -14 -14 -14 -14 -13 -15 -14 -13 -12 -11 -10 -10 -10 -11 -12 -12 -12 -12 -13
-18 -18 -17 -17 -16 -17 -16 -16 -14 -13 -14 -14 -14 -14 -13 -13 -13 -13 -13 -12 -13 -14 -15 -14 -14 -13 -14 -14 -14 -14 -14 -14 -14 -14 -13 -11 -10 -9 -10 -10 -11 -12 -13 -13 -14
-19 -18 -17 -17 -18 -18 -17 -16 -13 -14 -14 -15 -14 -14 -13 -13 -13 -13 -13 -13 -13 -14 -15 -15 -14 -13 -14 -13 -14 -14 -14 -14 -15 -14 -13 -11 -10 -10 -10 -10 -11 -12 -13 -13 -14
-19 -19 -17 -18 -18 -19 -18 -14 -15 -14 -15 -15 -15 -14 -14 -15 -13 -13 -13 -14 -14 -15 -15 -15 -15 -14 -14 -14 -14 -14 -13 -14 -14 -13 -13 -13 -8 -11 -11 -11 -12 -12 -13 -13 -13
-20 -19 -18 -19 -19 -19 -18 -16 -17 -16 -15 -15 -15 -15 -15 -15 -15 -13 -13 -14 -15 -14 -15 -15 -15 -15 -14 -14 -13 -14 -14 -15 -15 -14 -11 -14 -8 -11 -12 -12 -13 -13 -14 -14 -14
-21 -20 -19 -19 -19 -18 -18 -17 -17 -16 -16 -15 -15 -16 -15 -15 -15 -14 -13 -14 -15 -15 -15 -15 -15 -14 -14 -14 -15 -14 -15 -15 -15 -13 -12 -11 -11 -12 -13 -13 -13 -14 -14 -14 -13
-21 -20 -20 -20 -19 -18 -18 -18 -17 -17 -16 -16 -15 -15 -15 -15 -15 -14 -14 -15 -15 -15 -16 -16 -15 -15 -14 -15 -16 -15 -14 -15 -14 -12 -14 -10 -13 -13 -13 -14 -14 -13 -13 -13 -14
-21 -21 -20 -20 -19 -19 -19 -18 -17 -17 -16 -16 -16 -15 -16 -16 -14 -14 -16 -16 -16 -16 -16 -16 -15 -16 -14 -14 -15 -15 -15 -13 -14 -13 -14 -13 -11 -14 -14 -14 -14 -14 -14 -15 -15
-22 -21 -21 -20 -20 -20 -19 -18 -17 -17 -17 -16 -16 -16 -16 -15 -15 -16 -16 -16 -16 -16 -16 -16 -16 -15 -15 -15 -15 -16 -12 -14 -14 -13 -14 -14 -12 -15 -15 -14 -14 -14 -15 -15 -15

GFSSW_500_temp_045.txt.gz
Temp
-10 -10 -10 -10 -10 -10 -10 -10 -10 -10 -10 -10 -10 -10 -10 -10 -10 -10 -10 -10 -10 -10 -10 -10 -10 -10 -10 -10 -10 -10 -10 -10 -10 -10 -10 -10 -10 -10 -10 -10 -10 -11 -11 -10 -10
-10 -10 -10 -10 -10 -10 -10 -10 -10 -10 -10 -10 -10 -10 -10 -10 -10 -10 -10 -10 -10 -10 -10 -10 -10 -10 -10 -10 -10 -10 -10 -10 -10 -10 -10 -10 -10 -10 -10 -10 -10 -11 -10 -11 -11
-11 -11 -11 -10 -10 -10 -10 -10 -10 -10 -10 -10 -10 -10 -10 -10 -10 -10 -10 -10 -10 -10 -10 -10 -10 -10 -10 -10 -10 -10 -10 -10 -10 -10 -10 -10 -10 -10 -10 -10 -11 -11 -10 -11 -11
-11 -11 -11 -11 -11 -10 -10 -10 -10 -10 -10 -10 -10 -10 -10 -10 -10 -10 -10 -10 -10 -10 -10 -10 -10 -10 -10 -10 -10 -10 -10 -10 -10 -10 -10 -10 -10 -10 -10 -10 -11 -11 -10 -11 -10
-12 -12 -11 -11 -11 -11 -10 -10 -10 -10 -10 -10 -10 -10 -10 -10 -10 -10 -10 -10 -10 -10 -10 -10 -10 -10 -10 -10 -10 -10 -10 -10 -10 -10 -10 -10 -10 -10 -11 -11 -10 -10 -11 -11 -11
-13 -13 -12 -12 -11 -11 -11 -11 -10 -10 -10 -10 -10 -10 -10 -10 -10 -10 -10 -10 -10 -10 -10 -10 -10 -10 -10 -10 -10 -10 -10 -10 -10 -10 -10 -10 -10 -10 -11 -10 -10 -10 -10 -10 -10
-13 -13 -13 -12 -12 -11 -11 -11 -11 -11 -11 -11 -10 -10 -10 -10 -10 -10 -10 -10 -10 -10 -10 -10 -10 -10 -10 -10 -10 -10 -10 -10 -10 -10 -10 -10 -10 -10 -10 -11 -10 -10 -10 -10 -10
-14 -14 -13 -13 -13 -12 -12 -11 -11 -11 -11 -11 -11 -10 -10 -10 -10 -11 -10 -10 -10 -10 -10 -10 -10 -10 -10 -10 -10 -10 -10 -10 -10 -10 -10 -10 -10 -10 -10 -10 -10 -10 -10 -10 -10
-14 -14 -13 -13 -13 -13 -12 -12 -12 -11 -11 -11 -11 -11 -11 -11 -11 -11 -11 -11 -11 -10 -10 -10 -10 -10 -10 -10 -10 -10 -10 -10 -10 -10 -10 -10 -10 -10 -10 -10 -10 -10 -10 -10 -10
-14 -14 -14 -13 -13 -13 -13 -12 -12 -11 -11 -11 -11 -11 -11 -11 -11 -11 -11 -11 -11 -11 -11 -10 -10 -10 -10 -10 -11 -10 -10 -10 -10 -10 -10 -10 -10 -10 -10 -10 -10 -10 -10 -11 -10
-15 -15 -14 -14 -13 -13 -13 -13 -12 -12 -12 -12 -11 -11 -11 -11 -11 -11 -11 -11 -11 -11 -11 -11 -10 -10 -11 -11 -11 -10 -10 -10 -10 -11 -10 -10 -10 -10 -10 -10 -10 -10 -10 -10 -11
-16 -15 -15 -14 -14 -13 -13 -13 -13 -12 -12 -12 -12 -11 -11 -11 -11 -11 -11 -11 -11 -11 -11 -11 -10 -11 -11 -11 -11 -11 -11 -11 -11 -11 -10 -10 -10 -10 -10 -10 -10 -10 -10 -11 -10
-15 -16 -15 -15 -14 -14 -14 -14 -14 -13 -12 -12 -12 -11 -11 -11 -11 -11 -11 -11 -11 -11 -11 -11 -11 -11 -11 -11 -11 -11 -11 -12 -12 -12 -11 -11 -9 -10 -10 -10 -10 -10 -10 -10 -11
-16 -15 -15 -15 -14 -15 -14 -14 -14 -14 -13 -11 -12 -12 -11 -11 -11 -11 -11 -11 -11 -11 -11 -11 -11 -11 -11 -11 -11 -11 -12 -12 -12 -12 -11 -11 -9 -9 -10 -11 -10 -11 -10 -10 -11
-17 -17 -16 -15 -15 -15 -15 -15 -15 -14 -14 -13 -12 -11 -12 -12 -11 -11 -12 -12 -11 -12 -12 -11 -11 -12 -11 -11 -12 -12 -12 -12 -13 -12 -12 -11 -10 -8 -10 -10 -11 -11 -11 -10 -11
-17 -17 -17 -16 -15 -15 -15 -15 -15 -16 -14 -13 -12 -12 -12 -12 -12 -12 -12 -12 -12 -12 -12 -12 -11 -11 -11 -12 -12 -12 -12 -13 -12 -12 -11 -11 -11 -9 -9 -10 -10 -11 -11 -10 -11
-16 -16 -16 -17 -15 -15 -15 -15 -14 -15 -13 -13 -12 -12 -12 -12 -12 -12 -12 -12 -12 -12 -11 -12 -12 -12 -12 -12 -12 -13 -13 -13 -13 -12 -11 -11 -10 -9 -10 -10 -11 -11 -11 -11 -11
-16 -16 -16 -17 -17 -17 -17 -16 -16 -14 -14 -13 -13 -13 -13 -13 -13 -12 -12 -12 -12 -12 -12 -13 -13 -13 -13 -13 -13 -13 -13 -13 -13 -13 -12 -11 -10 -9 -10 -11 -11 -11 -11 -11 -11
-17 -17 -16 -16 -16 -17 -18 -17 -16 -14 -14 -14 -15 -15 -14 -14 -14 -13 -13 -12 -12 -13 -13 -14 -14 -14 -14 -13 -14 -13 -13 -14 -14 -13 -12 -11 -10 -10 -10 -11 -11 -12 -12 -12 -11
-18 -18 -17 -16 -16 -18 -19 -17 -15 -15 -15 -15 -15 -15 -15 -15 -15 -14 -13 -12 -12 -14 -14 -15 -15 -14 -14 -14 -14 -14 -14 -14 -14 -13 -13 -11 -10 -10 -10 -10 -11 -12 -12 -12 -12
-19 -18 -17 -18 -18 -18 -19 -17 -16 -16 -16 -16 -15 -15 -15 -15 -15 -14 -13 -13 -13 -14 -15 -15 -15 -13 -14 -13 -14 -14 -14 -15 -15 -14 -13 -12 -10 -10 -10 -11 -11 -11 -12 -12 -13
-20 -19 -18 -19 -19 -19 -19 -19 -16 -16 -16 -17 -16 -16 -15 -16 -16 -15 -13 -13 -14 -15 -15 -16 -16 -15 -14 -14 -14 -14 -14 -14 -14 -14 -14 -13 -8 -11 -11 -11 -12 -12 -12 -12 -13
-20 -19 -19 -20 -20 -19 -19 -18 -17 -17 -16 -16 -16 -15 -16 -16 -16 -14 -14 -14 -15 -15 -15 -15 -15 -15 -14 -14 -14 -14 -14 -14 -15 -15 -12 -13 -8 -11 -11 -12 -13 -13 -13 -13 -13
-21 -20 -20 -21 -20 -20 -19 -18 -18 -17 -16 -17 -16 -16 -16 -16 -16 -14 -14 -14 -14 -14 -16 -16 -16 -14 -13 -14 -15 -15 -15 -15 -15 -14 -13 -11 -11 -11 -12 -13 -13 -13 -13 -13 -13
-22 -21 -20 -21 -20 -20 -20 -19 -19 -18 -17 -17 -17 -16 -16 -16 -16 -15 -15 -15 -15 -15 -16 -16 -15 -15 -15 -15 -15 -15 -15 -16 -15 -13 -15 -10 -12 -12 -13 -14 -14 -13 -13 -13 -13
-23 -22 -22 -21 -21 -21 -20 -20 -20 -19 -19 -18 -18 -16 -16 -17 -16 -15 -16 -16 -16 -16 -16 -16 -15 -16 -15 -15 -16 -16 -16 -14 -14 -13 -13 -12 -10 -12 -14 -15 -14 -14 -13 -13 -14
-24 -23 -22 -22 -21 -22 -21 -20 -20 -19 -19 -19 -18 -18 -18 -16 -16 -16 -17 -16 -16 -16 -16 -16 -16 -16 -15 -16 -16 -16 -11 -15 -15 -15 -14 -13 -10 -14 -14 -14 -14 -14 -14 -14 -14

GFSSW_500_temp_048.txt.gz
Temp
-11 -11 -10 -10 -10 -10 -10 -10 -10 -10 -10 -10 -10 -10 -10 -10 -10 -10 -10 -10 -10 -10 -10 -10 -10 -10 -10 -10 -10 -10 -10 -10 -10 -10 -10 -10 -10 -10 -10 -10 -10 -11 -11 -11 -11
-11 -11 -11 -10 -10 -10 -10 -10 -10 -10 -10 -10 -10 -10 -10 -10 -10 -10 -10 -10 -10 -10 -10 -10 -10 -10 -10 -10 -10 -10 -10 -10 -10 -10 -10 -10 -10 -10 -10 -10 -11 -11 -11 -11 -11
-11 -11 -11 -11 -10 -10 -10 -10 -10 -10 -10 -10 -10 -10 -10 -10 -10 -10 -10 -10 -10 -10 -10 -10 -10 -10 -10 -10 -10 -10 -10 -10 -10 -10 -10 -10 -10 -10 -10 -10 -11 -11 -11 -11 -11
-12 -11 -11 -11 -11 -10 -10 -10 -10 -10 -10 -10 -10 -10 -10 -10 -10 -10 -10 -10 -10 -10 -10 -10 -10 -10 -10 -10 -10 -10 -10 -10 -10 -10 -10 -10 -10 -10 -10 -11 -10 -11 -11 -11 -11
-12 -12 -12 -11 -11 -11 -11 -11 -11 -10 -10 -10 -10 -10 -10 -10 -10 -10 -10 -10 -10 -10 -10 -10 -10 -10 -10 -10 -10 -10 -10 -10 -10 -10 -10 -10 -10 -10 -10 -10 -11 -10 -11 -10 -10
-14 -13 -12 -12 -12 -12 -11 -11 -11 -11 -10 -10 -10 -10 -10 -10 -10 -10 -10 -10 -10 -10 -10 -10 -10 -10 -10 -10 -10 -10 -10 -10 -10 -10 -10 -10 -10 -10 -10 -10 -10 -11 -11 -11 -11
-14 -14 -14 -13 -12 -12 -12 -11 -11 -11 -11 -10 -10 -10 -10 -10 -10 -10 -10 -10 -10 -10 -10 -10 -10 -10 -10 -10 -10 -10 -10 -10 -10 -10 -10 -10 -10 -10 -10 -10 -10 -10 -10 -11 -10
-14 -14 -14 -14 -13 -13 -13 -12 -12 -11 -11 -11 -11 -11 -11 -11 -10 -10 -10 -10 -10 -10 -10 -10 -10 -10 -10 -10 -10 -10 -10 -10 -10 -10 -10 -10 -10 -10 -10 -10 -10 -10 -10 -10 -10
-15 -14 -14 -14 -14 -13 -13 -13 -12 -12 -11 -11 -11 -11 -11 -11 -11 -11 -11 -11 -11 -11 -11 -10 -10 -10 -10 -10 -10 -10 -10 -10 -10 -10 -10 -10 -10 -10 -10 -10 -10 -10 -10 -10 -10
-15 -15 -14 -14 -14 -14 -14 -13 -13 -12 -12 -12 -11 -11 -11 -11 -11 -11 -11 -11 -11 -11 -11 -11 -10 -10 -10 -11 -10 -10 -10 -10 -10 -10 -10 -10 -10 -10 -10 -10 -10 -10 -10 -10 -10
-15 -15 -15 -15 -14 -14 -14 -13 -13 -13 -12 -12 -11 -11 -11 -11 -11 -11 -11 -11 -11 -11 -11 -11 -11 -11 -11 -11 -10 -10 -10 -10 -10 -10 -10 -10 -10 -10 -10 -10 -10 -10 -11 -11 -10
-16 -15 -15 -15 -15 -14 -14 -14 -14 -13 -13 -12 -12 -11 -11 -11 -11 -11 -11 -11 -11 -11 -11 -11 -11 -11 -11 -11 -11 -11 -10 -11 -11 -11 -10 -10 -10 -10 -10 -10 -10 -10 -10 -11 -11
-16 -16 -15 -15 -15 -15 -14 -15 -15 -14 -13 -13 -12 -12 -12 -12 -11 -11 -11 -11 -11 -11 -11 -11 -11 -11 -11 -11 -11 -11 -11 -11 -11 -11 -10 -10 -9 -9 -10 -10 -11 -10 -11 -11 -11
-17 -16 -16 -16 -16 -15 -15 -15 -15 -14 -14 -12 -13 -12 -12 -12 -11 -11 -11 -11 -12 -11 -12 -11 -11 -11 -12 -11 -12 -11 -12 -11 -11 -11 -11 -11 -9 -9 -10 -10 -11 -11 -11 -11 -11
-16 -17 -16 -16 -16 -16 -15 -15 -15 -14 -14 -13 -12 -12 -12 -12 -11 -12 -12 -12 -12 -12 -12 -11 -12 -12 -12 -12 -12 -11 -12 -12 -12 -11 -11 -10 -10 -9 -10 -10 -11 -11 -11 -11 -11
-17 -17 -17 -17 -16 -16 -15 -15 -16 -15 -14 -13 -12 -12 -12 -13 -12 -12 -13 -13 -12 -13 -12 -12 -12 -12 -12 -12 -12 -12 -12 -12 -12 -11 -11 -11 -11 -9 -9 -10 -10 -11 -11 -11 -11
-17 -17 -17 -17 -17 -17 -17 -16 -15 -16 -14 -13 -13 -13 -13 -13 -13 -13 -13 -13 -13 -13 -12 -12 -12 -12 -12 -12 -12 -12 -12 -12 -12 -12 -11 -11 -11 -9 -10 -11 -11 -11 -11 -11 -11
-18 -18 -17 -16 -17 -17 -17 -17 -16 -15 -16 -15 -14 -13 -13 -13 -13 -13 -13 -13 -13 -13 -12 -12 -12 -12 -12 -12 -13 -13 -13 -13 -13 -12 -12 -11 -9 -9 -10 -11 -11 -11 -11 -11 -11
-18 -18 -17 -17 -17 -17 -18 -18 -17 -15 -16 -16 -16 -16 -15 -14 -14 -13 -13 -13 -13 -13 -13 -13 -13 -13 -13 -13 -14 -14 -13 -14 -14 -13 -12 -10 -10 -10 -10 -11 -11 -11 -11 -11 -11
-19 -19 -18 -18 -18 -19 -19 -18 -17 -16 -16 -16 -16 -16 -15 -15 -15 -14 -14 -13 -13 -13 -14 -14 -14 -14 -14 -13 -13 -14 -14 -14 -14 -13 -12 -11 -10 -10 -11 -11 -11 -11 -11 -11 -11
-19 -19 -18 -19 -19 -19 -19 -18 -17 -17 -17 -17 -17 -17 -16 -16 -16 -15 -14 -14 -14 -14 -15 -15 -15 -13 -14 -13 -13 -14 -14 -15 -15 -14 -13 -11 -10 -10 -11 -11 -11 -11 -11 -12 -12
-21 -20 -19 -20 -20 -19 -19 -18 -17 -17 -17 -17 -17 -17 -16 -16 -16 -16 -15 -15 -15 -15 -15 -15 -15 -14 -14 -14 -14 -14 -13 -14 -14 -13 -13 -13 -8 -11 -11 -12 -12 -12 -12 -12 -12
-21 -20 -20 -21 -21 -19 -19 -19 -18 -17 -17 -17 -16 -17 -16 -17 -17 -16 -16 -15 -16 -16 -15 -16 -15 -14 -13 -13 -13 -13 -13 -14 -14 -14 -13 -13 -8 -10 -12 -12 -13 -13 -13 -12 -11
-22 -21 -21 -21 -21 -20 -20 -20 -19 -18 -18 -18 -17 -18 -18 -18 -18 -17 -16 -16 -16 -16 -16 -16 -16 -14 -13 -13 -14 -15 -15 -15 -16 -15 -12 -11 -10 -11 -12 -13 -13 -14 -13 -12 -12
-22 -21 -21 -22 -21 -21 -20 -20 -19 -19 -18 -19 -18 -18 -18 -17 -17 -17 -16 -17 -16 -16 -16 -16 -16 -16 -14 -15 -16 -15 -15 -16 -15 -12 -15 -10 -13 -10 -13 -13 -14 -14 -14 -13 -13
-23 -22 -22 -22 -22 -22 -21 -21 -21 -20 -20 -19 -19 -19 -18 -18 -17 -16 -17 -17 -17 -17 -17 -17 -16 -17 -15 -15 -16 -16 -16 -14 -14 -13 -14 -11 -11 -13 -14 -14 -14 -14 -13 -13 -13
-25 -24 -23 -23 -23 -23 -22 -21 -21 -21 -21 -20 -20 -19 -19 -18 -18 -17 -17 -17 -17 -17 -17 -17 -17 -17 -15 -16 -17 -17 -12 -14 -14 -14 -14 -14 -10 -15 -14 -14 -14 -14 -14 -13 -13